Temp
51 51 51 51 51 51 51 51 51 51 51 52 53 53 53 53 53 49 47 46 42 37 40 43 44 38 37 37 33 38 36 33 33 31 30 29 29 32 33 34 32 31 30 28 30 27 25 39 38 36 41 48 48 49
51 51 51 50 50 50 50 50 51 50 51 51 52 52 53 53 53 52 43 47 46 40 40 47 47 48 46 44 40 39 39 40 37 33 30 33 31 33 33 28 37 30 32 30 32 32 37 38 37 41 42 43 49 49
51 51 50 50 50 50 50 50 50 51 51 51 51 52 52 53 53 51 44 46 43 39 40 35 37 44 45 46 48 37 35 40 39 42 37 35 32 35 31 32 34 36 38 32 33 36 37 41 43 48 49 48 51 53
49 49 49 50 50 50 49 49 50 50 50 51 51 51 52 52 53 52 46 47 44 41 33 36 47 43 50 46 44 47 41 42 42 41 37 35 33 39 35 37 36 39 41 37 36 39 42 42 45 48 49 50 50 52
49 49 49 49 49 49 49 49 49 49 50 51 51 52 52 52 52 50 48 49 49 41 35 35 41 45 46 46 45 47 44 41 40 38 37 35 37 39 41 38 35 42 39 36 35 42 41 43 46 49 47 47 49 49
48 49 48 49 49 49 48 48 49 50 50 50 51 51 51 51 51 45 40 46 49 47 37 33 40 42 44 46 47 45 44 43 42 39 39 39 40 41 36 32 39 42 46 46 42 46 46 47 48 50 48 48 49 49
48 48 48 48 48 48 48 48 49 50 50 50 50 50 51 51 47 42 41 45 50 48 38 36 33 44 50 43 46 44 44 44 42 41 40 35 39 43 37 30 41 43 45 48 50 49 46 48 45 49 49 49 49 49
47 48 48 48 48 48 49 49 49 50 50 50 51 51 51 51 49 44 48 50 49 43 42 36 33 36 48 40 40 45 42 42 43 42 40 37 36 35 32 39 42 44 47 48 47 48 46 50 49 49 49 48 47 46
47 47 48 48 48 48 48 49 50 50 50 50 51 51 47 45 43 46 53 51 49 44 38 36 31 27 43 42 44 43 43 39 42 40 36 38 33 30 37 40 40 44 42 44 47 46 47 47 47 48 47 46 45 45
47 47 48 47 48 48 48 49 50 50 50 49 44 44 43 44 52 51 47 44 41 42 43 39 41 31 38 36 36 37 39 37 35 37 40 33 30 39 42 43 43 45 46 46 42 41 43 45 46 45 45 46 46 46
47 47 48 48 48 48 49 49 49 49 47 37 33 39 43 49 45 42 39 38 38 35 37 38 38 34 40 33 34 40 35 33 33 37 37 28 28 37 44 44 46 46 46 46 47 44 44 44 47 44 45 46 46 45
47 47 47 48 48 48 49 49 49 40 36 38 39 43 43 40 36 34 34 39 36 33 39 38 39 37 37 38 35 37 32 32 30 36 34 28 35 41 45 47 45 45 46 46 48 47 46 48 47 46 45 44 44 45
46 47 47 47 48 48 49 48 48 48 45 39 40 37 38 38 31 32 28 34 36 42 44 43 41 42 38 40 34 31 29 28 34 26 29 32 39 44 45 46 45 45 47 47 48 48 48 47 47 46 44 44 44 44
47 47 47 47 47 48 48 48 48 45 36 34 36 32 33 31 32 30 33 37 45 44 44 44 41 40 42 38 35 32 33 31 24 23 28 34 40 44 45 47 46 45 46 47 47 48 48 46 45 45 44 44 43 41
47 47 47 46 47 47 47 47 48 40 33 31 35 29 31 35 35 41 44 44 46 45 44 41 43 42 38 38 36 31 30 24 25 25 29 36 41 45 46 47 46 45 45 49 47 47 47 46 44 43 43 43 43 42
46 45 42 47 46 46 47 45 39 36 33 33 32 32 35 33 33 35 36 37 42 40 40 41 39 37 36 36 32 33 27 23 26 29 35 38 41 44 44 47 48 48 47 46 46 48 47 46 44 42 43 43 42 41
46 35 44 46 46 46 46 41 35 36 32 34 32 34 34 32 33 35 36 37 39 38 34 36 34 33 37 33 31 31 28 31 33 38 38 40 42 43 46 48 48 48 47 46 46 46 45 45 45 43 40 40 41 41
40 39 45 45 45 42 37 39 38 35 33 34 32 31 33 34 34 37 38 38 37 37 40 38 41 36 34 30 30 36 37 39 40 40 42 43 43 45 48 47 49 49 48 46 46 45 44 43 42 40 40 40 39 39
39 41 46 46 44 39 33 33 35 33 32 33 33 33 34 34 36 39 39 42 39 43 39 39 37 36 35 37 39 42 41 41 44 42 42 45 45 46 48 49 49 47 47 46 45 44 44 44 43 41 40 39 37 37
46 45 45 46 44 32 31 31 35 30 30 32 35 34 33 34 37 37 36 37 36 40 35 36 36 38 39 42 42 43 46 45 42 42 42 43 45 46 47 47 46 46 46 46 44 42 42 41 41 41 40 39 37 36
42 39 44 40 35 33 30 29 29 29 30 29 33 34 35 35 34 35 34 36 33 31 32 37 38 40 41 42 43 43 44 46 44 44 44 43 45 46 46 46 47 46 45 44 44 42 43 44 42 41 41 39 38 37
37 43 37 40 32 32 29 31 29 31 29 31 31 34 31 30 33 34 37 31 32 34 39 40 42 43 43 43 43 45 47 48 46 46 44 44 45 42 44 45 46 46 46 46 47 45 44 43 42 42 41 39 38 37
41 39 38 37 31 26 24 32 28 30 28 31 29 28 28 29 36 40 32 33 36 38 42 41 43 45 44 43 44 45 46 45 45 45 46 46 48 46 46 45 48 47 45 45 49 48 44 40 41 42 41 40 38 35
41 35 31 30 30 26 31 28 24 27 28 26 23 28 31 31 37 33 32 33 37 40 39 39 41 41 44 44 41 42 43 43 42 44 46 45 44 45 46 46 48 50 50 49 48 45 44 44 41 42 41 39 38 36
25 22 27 15 27 27 27 28 29 27 25 26 27 26 28 35 28 30 31 31 33 36 37 37 37 39 39 39 40 42 44 43 41 41 44 45 44 44 44 46 48 48 50 49 46 46 44 43 43 41 41 39 37 36
19 24 23 26 26 25 26 25 26 24 27 26 26 30 31 29 27 28 31 29 30 33 34 36 34 35 37 39 38 39 40 44 42 40 42 45 46 46 45 44 44 44 50 51 49 46 44 44 42 41 40 38 35 37
21 18 27 33 31 30 28 29 28 25 25 25 27 29 28 24 24 26 32 33 31 33 36 37 38 36 37 38 40 41 42 44 43 43 44 44 45 48 48 47 46 48 51 52 51 49 46 44 43 43 41 39 39 38
27 28 24 24 27 29 27 27 27 26 28 29 27 26 26 25 22 28 32 33 34 35 36 38 39 39 38 38 40 39 39 42 46 48 46 47 47 46 45 45 47 41 51 53 52 51 50 47 45 44 41 40 37 37
25 25 27 26 27 25 28 27 29 31 32 30 26 26 28 28 30 30 32 33 35 35 34 35 36 38 38 38 37 38 37 35 35 35 37 37 40 42 45 45 45 46 47 47 38 45 49 48 47 44 43 41 39 37
26 28 23 26 26 26 31 33 32 34 34 33 35 33 30 30 31 34 33 32 32 32 34 35 35 34 33 33 33 34 35 35 34 32 32 33 36 41 41 42 44 44 46 45 42 40 37 41 39 40 38 37 35 32
29 28 29 28 26 29 31 34 37 36 36 34 34 32 29 30 32 32 31 31 32 33 32 31 32 32 31 31 31 31 31 33 33 34 34 36 37 39 39 41 41 43 44 44 43 43 41 41 40 38 37 34 34 33
29 31 29 28 26 30 32 30 30 32 31 31 29 32 29 27 24 27 30 29 28 27 28 30 29 30 31 32 32 32 32 32 31 32 32 32 33 36 39 40 40 40 40 41 42 41 41 38 36 35 35 34 34 33
27 29 30 28 24 28 30 30 31 28 27 25 25 28 27 26 22 26 31 31 28 27 27 29 30 30 32 31 30 30 30 31 32 31 31 31 30 30 34 36 37 38 37 36 36 36 35 34 33 32 32 30 30 29
MSLP
1026.50 1026.13 1025.71 1025.38 1025.04 1024.66 1024.31 1023.91 1023.51 1023.02 1022.60 1022.21 1021.79 1021.28 1020.86 1020.50 1020.28 1020.29 1019.87 1020.00 1020.12 1019.51 1018.04 1017.50 1017.17 1016.79 1016.66 1016.45 1015.99 1015.11 1014.49 1014.09 1013.95 1013.61 1013.48 1012.85 1011.80 1010.58 1009.72 1009.15 1008.83 1008.65 1008.58 1008.28 1008.12 1007.67 1006.97 1006.04 1005.48 1004.62 1003.10 1001.86 1001.20 1000.63
1026.06 1025.71 1025.40 1025.16 1024.87 1024.52 1024.13 1023.63 1023.17 1022.75 1022.29 1021.88 1021.42 1021.02 1020.57 1020.09 1019.78 1019.66 1019.70 1019.40 1019.46 1019.32 1017.51 1016.71 1015.74 1015.18 1015.19 1015.36 1015.92 1015.51 1014.98 1014.66 1014.35 1014.15 1013.90 1013.28 1012.19 1011.20 1010.04 1009.16 1008.76 1008.79 1008.92 1008.62 1008.07 1007.28 1006.65 1006.20 1005.34 1003.96 1002.84 1002.30 1000.99 1000.40
1025.66 1025.47 1025.22 1024.95 1024.55 1024.10 1023.70 1023.29 1022.83 1022.37 1021.96 1021.52 1021.09 1020.61 1020.17 1019.78 1019.43 1019.26 1019.13 1019.07 1019.34 1018.64 1017.01 1016.16 1014.25 1013.47 1013.63 1014.09 1014.63 1015.45 1014.61 1014.05 1014.06 1013.84 1013.87 1013.38 1012.51 1011.41 1010.13 1009.35 1008.88 1008.47 1008.34 1008.17 1007.70 1006.81 1006.20 1005.47 1003.97 1002.48 1001.82 1001.07 1000.79 999.89
1025.46 1025.26 1024.99 1024.63 1024.19 1023.73 1023.35 1022.90 1022.43 1021.96 1021.44 1020.99 1020.55 1020.12 1019.71 1019.32 1019.01 1018.80 1018.79 1018.47 1018.58 1018.38 1017.59 1014.99 1013.47 1013.15 1012.27 1012.69 1013.42 1013.45 1013.76 1013.89 1013.84 1013.81 1013.72 1013.14 1012.34 1011.26 1010.18 1009.62 1009.05 1008.14 1007.63 1007.33 1006.97 1006.22 1005.58 1005.29 1003.87 1002.87 1001.77 1001.44 1000.52 1000.48
1025.30 1025.03 1024.63 1024.17 1023.78 1023.33 1022.89 1022.49 1021.96 1021.43 1020.95 1020.39 1019.85 1019.38 1019.07 1018.85 1018.61 1018.32 1017.91 1017.38 1017.50 1017.99 1017.15 1015.30 1013.73 1012.19 1011.81 1011.90 1012.35 1012.94 1013.49 1013.71 1013.66 1013.55 1013.30 1012.48 1011.64 1010.64 1009.74 1009.47 1008.78 1007.88 1007.39 1007.08 1006.82 1006.29 1005.93 1005.29 1004.34 1003.13 1002.26 1002.13 1002.01 1001.47
1024.99 1024.69 1024.43 1024.05 1023.68 1023.22 1022.69 1022.06 1021.49 1020.88 1020.36 1019.81 1019.26 1018.72 1018.38 1018.20 1018.04 1018.11 1017.23 1016.78 1016.60 1017.10 1017.33 1015.98 1013.44 1012.22 1011.84 1011.70 1011.88 1012.43 1012.91 1013.17 1013.22 1013.05 1012.44 1011.80 1010.82 1010.41 1009.85 1009.43 1008.25 1007.65 1007.07 1006.75 1006.58 1006.14 1005.94 1005.42 1004.78 1003.89 1003.64 1003.40 1003.13 1002.68
1024.74 1024.51 1024.24 1023.81 1023.42 1022.90 1022.37 1021.72 1020.87 1020.19 1019.57 1018.89 1018.26 1017.74 1017.40 1017.37 1017.59 1017.51 1017.06 1016.90 1016.79 1017.06 1017.17 1015.71 1014.23 1012.28 1011.77 1011.81 1011.85 1012.25 1012.48 1012.56 1012.78 1012.38 1011.91 1011.51 1010.59 1010.11 1009.84 1009.30 1007.93 1007.38 1006.89 1006.43 1006.19 1005.86 1006.16 1005.93 1005.57 1005.17 1004.76 1004.54 1004.12 1003.68
1024.54 1024.29 1023.95 1023.45 1022.97 1022.55 1021.94 1021.25 1020.38 1019.48 1018.70 1017.92 1017.06 1016.42 1015.97 1015.71 1016.50 1016.74 1016.01 1016.18 1016.92 1016.93 1016.34 1015.39 1014.26 1013.05 1011.86 1012.02 1012.02 1011.84 1012.06 1012.18 1012.06 1011.80 1011.51 1011.28 1010.58 1010.18 1009.63 1008.49 1007.85 1007.31 1006.89 1006.62 1006.68 1006.59 1006.36 1006.07 1005.62 1005.36 1004.95 1004.55 1004.36 1004.74
1024.28 1024.00 1023.74 1023.31 1022.80 1022.14 1021.57 1020.74 1019.89 1018.96 1018.05 1016.93 1016.03 1015.39 1015.55 1015.73 1015.92 1015.53 1015.19 1015.07 1015.84 1016.58 1015.46 1015.06 1014.39 1013.62 1012.03 1011.84 1011.89 1011.85 1011.66 1011.66 1011.62 1011.51 1011.27 1010.97 1010.40 1009.82 1008.54 1008.02 1007.70 1007.46 1007.32 1007.17 1007.07 1007.04 1006.44 1006.11 1005.81 1005.47 1005.41 1005.34 1005.27 1005.49
1023.96 1023.63 1023.31 1022.98 1022.50 1021.88 1021.22 1020.43 1019.64 1018.84 1017.60 1016.57 1015.91 1015.83 1015.46 1015.57 1015.33 1015.03 1014.86 1015.14 1015.62 1015.58 1014.81 1014.01 1013.50 1013.41 1012.68 1012.24 1011.90 1011.97 1011.74 1011.63 1011.35 1010.95 1010.68 1010.71 1009.84 1008.37 1007.81 1007.59 1007.48 1007.36 1007.28 1007.05 1007.36 1007.69 1007.46 1007.13 1006.84 1006.74 1006.80 1006.58 1006.57 1006.49
1023.67 1023.42 1023.13 1022.70 1022.17 1021.63 1020.88 1020.32 1019.78 1018.94 1017.96 1017.88 1017.71 1017.13 1016.33 1015.52 1015.24 1014.85 1014.72 1014.76 1014.82 1014.67 1013.91 1013.21 1013.15 1013.03 1012.25 1012.34 1011.99 1011.90 1011.98 1011.85 1011.56 1010.84 1010.62 1010.43 1009.58 1008.25 1007.46 1007.41 1007.23 1007.26 1007.29 1007.37 1007.50 1007.79 1008.03 1007.99 1008.01 1007.74 1007.19 1007.16 1006.84 1006.18
1023.35 1023.09 1022.84 1022.34 1021.80 1021.32 1020.71 1020.27 1019.84 1019.79 1019.65 1019.12 1018.75 1017.93 1016.93 1016.04 1015.37 1014.95 1014.25 1013.78 1013.63 1013.08 1012.50 1012.46 1012.16 1012.45 1012.05 1011.82 1012.02 1012.15 1012.23 1012.22 1011.82 1011.32 1011.09 1010.37 1008.45 1007.63 1007.35 1007.28 1007.23 1007.33 1007.43 1007.54 1007.61 1007.86 1008.13 1008.18 1008.39 1008.71 1008.29 1007.86 1007.80 1007.89
1023.09 1022.73 1022.41 1021.92 1021.42 1020.98 1020.52 1020.16 1019.76 1019.30 1018.54 1018.13 1017.88 1017.34 1016.55 1015.57 1015.27 1014.43 1013.53 1012.53 1012.11 1011.74 1011.61 1011.54 1011.45 1011.37 1011.54 1011.66 1011.96 1012.13 1012.32 1012.35 1011.94 1011.98 1011.06 1009.23 1007.94 1007.16 1007.08 1007.13 1007.31 1007.47 1007.61 1007.69 1008.18 1008.40 1008.61 1008.89 1009.04 1009.20 1009.39 1009.02 1009.02 1009.16
1022.66 1022.27 1021.77 1021.42 1021.07 1020.66 1020.36 1019.93 1019.42 1019.07 1019.12 1018.41 1017.32 1016.58 1015.89 1015.02 1014.27 1013.19 1012.53 1011.83 1011.51 1011.47 1011.09 1010.95 1010.63 1010.61 1010.66 1011.23 1011.47 1011.99 1012.09 1012.26 1012.51 1012.24 1010.60 1008.51 1007.47 1007.01 1006.85 1007.01 1007.43 1007.69 1007.87 1008.14 1008.14 1008.24 1008.74 1009.21 1009.40 1009.47 1009.69 1009.87 1010.14 1009.94
1022.17 1021.63 1021.16 1020.80 1020.67 1020.43 1019.97 1019.47 1019.05 1019.18 1019.14 1018.51 1017.37 1016.12 1014.85 1014.03 1013.45 1012.72 1012.21 1011.86 1011.19 1010.78 1010.70 1010.63 1010.30 1010.24 1010.45 1010.79 1011.05 1011.50 1012.05 1012.17 1011.97 1010.83 1009.23 1007.62 1006.92 1006.72 1006.74 1006.78 1007.14 1007.58 1007.76 1007.97 1008.44 1008.81 1009.10 1009.58 1009.91 1010.56 1010.80 1010.65 1010.69 1010.64
1021.71 1021.15 1020.85 1020.58 1020.27 1019.95 1019.42 1018.91 1018.73 1018.88 1018.63 1018.03 1017.07 1015.63 1014.46 1014.23 1013.54 1012.92 1012.48 1012.05 1011.37 1011.10 1010.69 1010.46 1010.21 1010.21 1010.23 1010.32 1010.76 1010.74 1011.19 1011.21 1010.18 1009.20 1008.04 1007.24 1006.87 1006.66 1006.66 1006.62 1006.88 1007.33 1007.57 1007.83 1008.10 1008.54 1008.97 1009.53 1010.15 1010.69 1011.05 1011.37 1011.52 1011.23
1021.41 1021.39 1020.77 1020.49 1020.04 1019.33 1018.86 1018.73 1018.63 1018.35 1017.86 1016.97 1015.73 1014.92 1014.77 1014.42 1013.86 1013.09 1012.52 1011.99 1011.54 1011.40 1010.92 1010.55 1010.26 1009.76 1010.07 1009.88 1009.85 1009.68 1009.78 1008.88 1008.12 1007.81 1007.34 1006.95 1006.64 1006.52 1006.55 1006.57 1006.64 1006.95 1007.57 1008.13 1008.41 1008.85 1009.44 1010.08 1010.66 1011.33 1011.93 1012.28 1012.13 1011.76
1021.31 1020.85 1020.48 1020.23 1019.84 1019.30 1018.82 1018.50 1018.19 1017.61 1016.84 1015.86 1015.36 1014.51 1014.19 1013.74 1013.29 1012.75 1012.16 1011.63 1011.71 1011.30 1010.50 1009.78 1009.41 1009.42 1009.35 1009.16 1008.72 1008.00 1007.73 1007.60 1007.51 1007.17 1006.64 1006.28 1006.53 1006.59 1006.33 1006.58 1006.47 1006.63 1007.11 1007.92 1008.49 1009.02 1009.65 1010.26 1010.82 1011.54 1011.88 1012.11 1012.24 1012.42
1021.08 1020.50 1020.04 1019.75 1019.65 1019.68 1019.46 1018.75 1018.28 1017.25 1016.08 1015.36 1014.70 1014.16 1013.77 1013.24 1012.59 1012.14 1011.73 1011.18 1011.16 1010.88 1010.63 1009.64 1009.09 1008.81 1008.66 1008.15 1007.78 1007.37 1007.46 1007.58 1007.21 1007.03 1006.47 1005.95 1005.91 1006.29 1006.20 1006.14 1006.40 1006.79 1007.20 1007.78 1008.40 1008.87 1009.35 1009.86 1010.35 1011.16 1011.72 1012.09 1012.60 1012.91
1020.29 1019.95 1019.60 1019.51 1019.49 1019.84 1019.52 1018.58 1017.91 1017.53 1016.44 1015.40 1014.73 1014.01 1013.74 1013.12 1012.16 1011.68 1011.23 1010.89 1010.82 1010.62 1010.26 1009.53 1008.51 1007.99 1007.76 1007.42 1007.30 1007.10 1006.70 1006.47 1006.65 1006.55 1006.37 1005.75 1005.56 1005.81 1006.16 1006.11 1006.48 1006.72 1007.16 1007.82 1008.38 1008.90 1009.78 1010.53 1010.92 1011.31 1011.85 1012.44 1012.91 1013.59
1020.16 1020.02 1019.56 1019.59 1019.66 1019.76 1019.60 1018.99 1018.33 1017.52 1016.56 1015.79 1014.71 1014.30 1013.38 1012.45 1011.93 1011.39 1011.04 1010.48 1010.55 1010.08 1009.66 1009.08 1008.83 1008.54 1008.19 1007.48 1006.93 1006.54 1006.11 1005.98 1005.96 1005.94 1005.49 1005.52 1005.06 1005.27 1005.66 1006.03 1006.15 1006.65 1007.18 1007.83 1008.40 1009.02 1009.51 1010.07 1010.73 1011.34 1011.95 1012.67 1013.28 1013.89
1020.29 1019.94 1019.93 1019.74 1020.02 1019.77 1019.47 1018.65 1018.44 1017.35 1016.97 1015.79 1015.04 1014.02 1013.44 1012.43 1011.57 1010.93 1010.47 1010.58 1010.42 1010.39 1010.05 1009.67 1009.16 1008.68 1008.05 1007.49 1006.92 1006.42 1005.77 1005.22 1004.94 1004.92 1004.77 1004.77 1004.87 1005.12 1005.35 1005.47 1005.92 1006.43 1006.84 1007.22 1007.64 1008.33 1009.11 1009.86 1010.71 1011.45 1012.13 1013.00 1013.73 1014.32
1020.02 1020.07 1020.01 1019.93 1019.94 1019.66 1019.06 1018.42 1018.32 1017.37 1016.71 1015.76 1015.09 1014.29 1013.25 1012.47 1011.45 1010.79 1010.73 1010.84 1010.94 1010.80 1010.34 1009.90 1009.29 1008.78 1008.17 1007.48 1006.91 1006.29 1005.75 1005.02 1004.61 1004.28 1004.07 1004.03 1003.77 1004.06 1004.47 1004.72 1004.93 1005.50 1006.25 1006.86 1007.09 1007.63 1008.58 1009.51 1010.45 1011.21 1012.13 1012.91 1013.68 1014.49
1019.99 1020.28 1020.31 1020.18 1020.00 1019.60 1018.85 1018.39 1017.78 1017.27 1016.45 1016.13 1015.72 1014.76 1013.65 1013.09 1012.17 1011.65 1011.39 1011.62 1011.59 1011.15 1010.63 1010.15 1009.49 1008.70 1007.97 1007.44 1006.99 1006.52 1005.95 1005.45 1004.80 1003.98 1003.60 1003.63 1003.72 1003.70 1003.74 1004.09 1004.43 1004.46 1004.71 1005.58 1006.78 1007.58 1008.41 1009.28 1010.18 1011.00 1011.80 1012.53 1013.41 1014.17
1020.84 1021.06 1020.83 1020.43 1020.04 1019.74 1018.96 1018.17 1017.58 1017.35 1016.73 1016.36 1015.81 1014.70 1013.66 1012.93 1012.98 1012.06 1012.07 1013.02 1012.22 1011.59 1011.30 1010.73 1010.02 1009.32 1008.70 1008.12 1007.50 1006.87 1006.46 1006.05 1005.40 1004.62 1003.64 1003.35 1003.34 1003.57 1003.77 1003.87 1004.15 1004.41 1004.68 1005.37 1006.50 1007.46 1008.20 1009.03 1009.82 1010.59 1011.35 1012.05 1012.99 1013.93
1021.09 1020.88 1020.71 1020.08 1019.65 1019.44 1018.58 1018.25 1017.80 1017.37 1017.09 1016.51 1015.71 1014.70 1013.94 1013.76 1013.18 1012.93 1013.67 1014.19 1013.57 1012.90 1012.17 1011.40 1010.82 1010.01 1009.26 1008.71 1008.06 1007.31 1006.64 1006.08 1005.52 1004.70 1003.72 1003.25 1002.96 1003.10 1003.21 1003.49 1003.90 1004.22 1004.22 1004.56 1005.17 1006.42 1007.46 1008.30 1009.16 1010.07 1010.97 1011.79 1012.64 1013.45
1020.91 1020.51 1019.91 1019.28 1019.21 1019.22 1018.77 1017.97 1017.63 1017.46 1017.17 1016.59 1015.94 1015.39 1015.10 1014.81 1014.90 1015.57 1015.14 1015.01 1014.61 1013.85 1013.08 1012.22 1011.49 1010.84 1010.12 1009.40 1008.72 1007.93 1007.01 1006.13 1005.29 1004.42 1003.91 1003.25 1002.90 1002.81 1002.88 1003.03 1002.92 1002.88 1003.38 1003.97 1004.66 1005.39 1006.20 1007.47 1008.47 1009.33 1010.27 1011.33 1012.13 1012.96
1020.28 1020.03 1019.66 1019.08 1019.03 1018.67 1018.38 1017.91 1017.54 1017.19 1016.65 1016.26 1016.23 1015.98 1015.92 1016.39 1017.26 1017.06 1016.55 1015.97 1015.33 1014.43 1013.61 1012.83 1012.14 1011.49 1010.88 1010.29 1009.52 1008.70 1007.60 1006.56 1005.25 1004.64 1004.28 1003.83 1003.75 1003.55 1003.40 1003.30 1003.05 1002.87 1003.24 1003.43 1004.05 1004.89 1005.65 1006.72 1007.90 1008.70 1009.50 1010.56 1011.72 1012.62
1020.01 1019.64 1019.33 1018.87 1018.45 1018.18 1017.74 1017.44 1016.93 1016.56 1016.15 1016.19 1016.41 1016.45 1017.00 1018.14 1018.35 1017.88 1017.25 1016.61 1015.80 1014.99 1014.22 1013.46 1012.76 1012.26 1011.63 1011.00 1010.47 1009.84 1009.24 1008.50 1007.37 1006.57 1006.10 1005.82 1005.27 1004.88 1004.64 1004.13 1003.81 1003.49 1003.50 1003.93 1004.37 1004.61 1005.13 1006.01 1006.77 1007.79 1008.84 1010.07 1011.26 1012.39
1019.22 1018.97 1018.94 1018.49 1018.21 1017.50 1016.86 1016.62 1016.23 1016.03 1016.09 1016.07 1016.24 1017.04 1017.99 1018.55 1018.83 1018.45 1017.77 1017.03 1016.39 1015.84 1015.33 1014.70 1014.26 1013.60 1012.90 1012.23 1011.66 1011.04 1010.51 1010.35 1009.83 1009.18 1008.53 1007.96 1007.34 1006.63 1006.08 1005.12 1004.49 1004.14 1004.03 1004.40 1005.16 1005.89 1006.39 1006.95 1007.90 1008.58 1009.48 1010.72 1011.66 1012.58
1018.41 1018.48 1018.33 1018.11 1017.57 1016.45 1015.76 1015.49 1015.34 1015.46 1015.62 1015.93 1016.13 1016.47 1017.38 1018.10 1018.61 1018.81 1018.69 1018.33 1017.77 1017.00 1016.32 1015.79 1015.21 1014.76 1014.25 1013.79 1013.37 1012.68 1012.05 1011.57 1011.02 1010.41 1009.87 1009.26 1008.31 1007.73 1007.13 1006.14 1005.46 1005.05 1004.90 1005.00 1005.51 1006.18 1006.88 1007.50 1008.02 1008.58 1009.40 1010.56 1011.53 1012.19
1017.94 1017.75 1017.72 1017.38 1016.79 1015.73 1015.38 1015.32 1015.27 1015.43 1015.93 1016.24 1016.75 1016.89 1017.76 1018.40 1019.14 1019.52 1019.80 1019.24 1018.65 1018.04 1017.50 1016.93 1016.41 1015.94 1015.60 1015.13 1014.62 1014.21 1013.91 1013.16 1012.42 1011.84 1011.21 1010.51 1009.86 1009.17 1008.25 1007.32 1006.86 1006.53 1006.28 1006.33 1006.38 1006.95 1007.65 1008.08 1008.60 1009.45 1010.15 1010.64 1011.53 1012.10
1017.30 1017.18 1017.11 1017.06 1016.62 1016.12 1015.74 1015.76 1015.53 1016.08 1016.57 1017.14 1017.74 1017.98 1018.44 1019.11 1019.99 1020.63 1020.44 1020.23 1019.93 1019.37 1018.77 1018.16 1017.64 1017.19 1016.70 1016.31 1015.91 1015.30 1014.70 1014.16 1013.62 1013.09 1012.54 1011.87 1011.40 1010.74 1009.75 1009.08 1008.75 1008.45 1008.20 1008.29 1008.51 1008.68 1009.06 1009.53 1009.99 1010.10 1010.62 1011.55 1012.60 1013.38
Wind_Speed
16 17 17 17 15 16 17 18 18 19 18 19 18 18 18 15 13 5 3 7 4 4 7 9 7 6 6 4 2 5 8 4 4 6 4 3 3 4 4 3 5 3 2 3 4 5 7 10 11 6 4 6 7 9
16 16 12 15 17 18 19 19 19 19 20 19 18 19 19 17 15 9 3 2 4 4 7 14 21 23 23 19 4 3 3 3 3 2 2 3 3 3 5 3 1 3 2 3 3 3 7 11 14 18 18 14 5 6
14 13 14 16 17 18 18 19 20 20 20 19 19 18 18 18 16 9 3 3 2 3 7 3 8 5 7 18 16 5 3 3 3 2 2 2 5 2 3 3 4 3 5 3 3 4 8 11 18 7 6 13 10 11
12 14 15 16 17 17 19 20 20 21 20 20 19 19 19 17 16 12 3 2 2 2 4 8 3 8 6 8 15 19 2 1 0 1 2 2 4 4 3 4 3 4 5 5 4 5 8 7 18 13 16 17 18 17
13 14 15 16 17 18 19 20 20 21 21 21 20 19 18 17 17 10 6 6 7 4 3 7 11 6 4 6 10 16 7 3 2 1 3 3 3 3 2 2 3 3 4 4 3 8 7 8 13 15 19 17 16 16
12 13 15 17 18 19 20 21 21 22 23 23 22 21 18 17 13 3 4 1 4 4 1 5 5 5 3 2 7 11 6 3 2 2 3 3 5 2 2 3 5 4 5 3 3 5 4 6 9 11 13 16 15 15
12 14 15 17 19 20 21 22 23 23 24 24 23 22 20 16 4 3 2 2 3 3 2 4 5 4 1 2 2 3 3 2 2 2 3 3 3 2 1 3 5 7 7 7 9 4 5 7 5 7 8 9 11 13
12 14 15 17 18 21 22 23 23 23 23 24 24 22 19 12 6 4 6 11 6 3 3 3 5 5 2 1 2 2 3 3 3 2 2 3 4 1 3 6 5 6 6 8 9 7 2 6 10 9 8 10 13 11
12 14 16 18 19 20 21 21 23 22 25 26 21 6 3 2 2 2 6 8 7 2 3 3 2 5 4 2 2 1 2 3 2 3 3 2 2 4 6 4 2 4 4 5 6 7 8 10 10 11 11 11 10 10
12 14 15 17 19 20 19 21 20 24 27 20 5 2 2 1 13 8 4 3 4 5 4 4 2 4 1 1 2 1 1 2 2 4 1 2 5 5 4 5 2 3 5 4 6 7 7 8 9 10 10 9 8 6
12 14 16 17 19 19 20 18 21 23 10 5 5 3 4 12 2 1 2 3 2 3 4 3 4 3 2 3 4 1 2 1 2 2 1 3 4 4 3 3 1 3 5 5 6 5 5 4 6 6 9 11 10 12
13 15 16 17 18 18 19 17 19 6 2 6 7 6 4 2 2 1 4 3 4 5 3 3 4 5 4 1 1 1 2 2 4 3 1 4 5 3 4 4 3 5 6 5 4 7 7 6 6 5 6 8 9 9
13 15 17 18 18 18 14 18 19 19 11 2 4 3 2 2 3 5 5 3 2 2 1 3 4 4 1 2 1 3 2 4 2 3 4 6 3 3 4 4 3 2 4 5 5 6 7 7 6 6 6 6 7 8
15 16 17 19 18 14 18 19 19 11 3 3 3 5 4 5 5 5 4 2 3 4 5 3 4 4 2 2 2 3 3 3 3 2 6 4 4 5 4 4 6 5 5 5 5 5 7 8 7 7 7 7 7 9
15 18 19 10 14 18 20 21 20 2 2 3 3 6 6 5 4 3 2 2 3 4 3 5 2 2 2 3 2 2 2 3 6 7 5 4 5 5 6 5 6 6 6 4 5 5 7 7 8 7 5 6 7 8
15 15 1 16 20 21 23 16 2 1 2 3 5 5 4 2 4 2 2 3 3 3 3 2 1 2 4 2 3 6 6 6 6 5 4 3 5 4 6 5 6 6 5 4 5 4 5 7 8 7 6 7 7 8
11 3 10 18 23 24 20 2 1 4 4 4 5 4 6 4 6 4 3 4 1 2 2 2 2 6 2 3 3 4 6 5 5 4 4 5 7 6 6 4 5 6 7 5 5 5 5 7 8 8 8 4 6 8
4 6 16 19 16 10 2 2 3 4 6 6 5 4 3 3 3 4 4 2 2 2 3 3 2 4 4 3 3 4 4 3 3 5 4 4 5 6 6 6 6 6 5 5 6 7 7 7 7 5 7 6 7 6
7 9 18 19 8 3 3 4 2 5 5 3 4 3 3 4 4 5 4 5 4 3 3 3 5 4 5 4 3 2 2 4 3 4 4 6 5 6 6 5 5 5 6 6 6 6 6 5 6 6 5 4 5 4
17 17 13 11 0 0 4 4 1 3 4 4 4 4 3 4 4 4 4 4 3 3 4 4 4 3 2 3 2 4 4 2 3 2 4 5 3 5 6 6 5 5 5 4 5 6 6 4 3 5 5 6 6 5
7 4 7 4 2 1 3 3 4 4 5 4 4 4 5 3 4 3 3 1 1 3 3 3 4 6 7 7 6 5 6 4 6 5 5 4 4 5 5 4 5 5 4 5 6 5 6 6 5 5 7 6 6 5
3 4 2 0 1 2 3 4 4 4 3 4 5 3 4 4 4 3 1 1 0 1 3 5 7 8 10 11 12 11 12 9 8 5 5 4 3 3 4 5 6 6 7 8 8 8 6 6 7 7 8 8 8 6
3 1 1 2 2 2 7 1 2 4 3 4 4 5 4 4 4 3 2 3 3 3 6 6 9 11 11 12 11 8 7 7 5 6 6 7 5 4 4 6 7 8 7 5 5 7 8 9 9 9 8 9 8 7
2 1 2 2 2 4 4 3 2 3 2 4 3 6 3 3 4 3 2 2 3 6 7 9 7 7 7 9 5 7 7 6 6 5 4 4 4 5 5 5 5 7 9 8 7 6 8 8 10 10 10 10 8 7
2 5 1 4 3 3 4 3 3 2 4 3 4 4 4 1 3 2 3 5 9 6 6 8 8 8 7 7 8 9 10 9 8 9 6 4 2 3 3 4 5 5 7 10 9 9 8 9 9 10 10 10 11 10
1 3 4 3 2 3 3 3 3 3 5 4 4 4 3 2 3 5 3 6 6 8 10 7 7 8 7 8 9 10 11 9 9 8 6 4 5 4 6 7 6 4 6 8 12 14 13 12 12 14 11 11 11 11
3 4 4 4 2 2 4 3 3 2 3 3 3 4 4 4 5 4 4 5 7 9 9 9 8 8 9 9 9 10 10 9 7 6 4 4 3 1 3 5 8 5 10 11 11 15 17 15 14 13 11 9 11 10
4 2 4 3 3 3 3 3 2 3 3 2 3 3 2 4 4 5 4 8 10 10 8 8 8 9 9 9 9 10 12 12 11 5 3 7 8 8 9 5 4 11 7 9 12 13 15 15 14 14 15 13 10 9
3 3 1 5 3 2 3 3 3 2 2 1 1 3 4 3 5 4 5 9 8 8 9 9 10 10 9 9 9 9 10 12 16 17 17 10 7 8 9 6 4 3 2 4 5 8 14 13 15 15 15 12 11 10
4 4 2 2 3 4 4 5 3 4 1 0 2 4 3 2 4 6 8 9 10 9 9 8 9 10 10 11 11 12 10 10 9 8 7 9 10 10 9 7 5 4 2 5 7 7 10 12 12 12 12 11 10 9
2 3 3 3 4 4 4 3 4 3 2 1 0 1 4 4 2 6 11 9 9 9 10 10 9 10 10 10 10 10 11 11 14 15 12 8 9 10 9 8 7 4 3 6 8 8 10 10 10 12 15 14 14 13
3 5 3 3 4 5 3 1 2 2 2 2 4 2 3 3 3 4 8 9 9 9 11 10 10 10 11 9 9 9 11 9 11 12 16 11 10 11 10 9 9 8 8 7 7 9 7 9 10 9 10 15 15 16
2 2 3 2 3 4 3 3 2 3 3 2 3 3 3 3 3 3 4 7 7 8 8 8 7 8 10 11 12 10 12 10 14 16 18 18 18 16 10 10 10 10 11 10 10 10 11 12 10 14 15 15 14 15
Wind_Direction
299 300 304 311 323 324 327 323 319 317 321 320 319 317 320 309 310 313 262 186 192 236 268 240 245 226 273 214 252 324 332 338 334 3 340 327 294 310 297 279 312 305 294 207 214 227 250 12 322 236 14 310 320 303
299 304 319 325 325 324 322 320 320 320 320 317 316 315 314 321 310 297 263 190 213 248 267 286 268 259 247 242 319 268 275 285 240 329 302 294 296 294 306 294 357 301 255 288 265 307 316 298 263 261 257 265 309 302
313 323 325 323 320 320 322 323 322 320 322 320 318 314 310 311 319 326 243 182 204 261 275 321 262 270 218 220 210 206 259 219 245 207 297 280 278 279 304 315 289 260 211 239 302 230 284 316 307 332 59 39 24 18
318 321 322 321 323 325 325 323 323 321 320 318 313 309 307 305 307 309 272 211 183 292 279 279 288 273 204 179 189 209 165 67 74 144 248 250 267 202 281 297 291 250 295 284 257 268 332 354 331 10 33 30 31 17
315 319 320 324 325 321 325 322 321 320 319 318 315 309 306 307 307 304 263 234 202 199 284 290 304 258 287 189 186 194 194 162 212 234 230 246 257 271 248 284 267 317 301 346 333 345 336 7 336 17 21 22 21 13
317 322 325 325 325 325 323 323 323 319 316 315 311 308 303 300 303 290 302 191 199 168 252 287 289 291 333 129 156 166 179 184 206 246 237 265 252 231 310 281 265 288 305 263 302 305 342 318 360 31 39 3 14 12
324 327 327 326 327 325 324 322 320 319 317 311 304 300 296 288 260 216 223 3 141 109 246 270 297 272 339 123 154 143 145 198 202 244 239 248 281 223 195 262 291 323 318 0 12 10 24 24 17 40 65 37 8 10
327 328 325 324 328 325 323 325 322 322 313 307 305 301 293 260 214 241 244 227 161 215 234 276 276 332 183 28 298 152 172 188 200 260 279 240 312 2 258 256 298 315 341 28 27 36 8 45 40 38 43 48 37 359
327 329 329 328 328 327 329 319 323 325 320 317 313 316 95 84 170 224 301 198 188 255 286 209 243 265 342 235 217 250 221 234 134 227 250 133 302 240 220 234 310 348 9 341 31 40 22 38 34 27 29 36 37 11
325 325 327 328 328 329 322 327 341 336 325 328 6 316 171 95 317 304 189 185 158 202 223 252 162 267 68 336 286 86 325 277 269 230 199 185 259 268 248 225 262 350 10 63 66 36 25 28 33 16 25 25 23 355
326 326 328 324 328 327 319 334 343 343 348 6 4 340 303 309 300 229 227 204 135 249 229 245 215 229 266 184 233 141 243 280 293 293 353 298 279 248 233 224 278 117 113 94 110 109 83 83 78 36 20 27 22 16
324 324 323 324 326 318 321 339 339 5 268 261 286 287 274 293 303 210 220 192 196 233 194 198 225 198 264 164 125 200 185 37 251 333 33 274 259 229 174 172 118 141 128 106 68 71 65 76 80 68 33 22 26 23
321 318 321 319 323 320 334 333 331 324 321 304 202 236 230 230 249 211 220 217 212 187 108 278 248 211 206 151 172 93 110 235 12 38 241 234 255 251 168 119 113 159 140 112 96 86 86 97 80 68 53 28 30 33
316 314 314 317 313 326 330 325 325 334 311 272 253 257 208 219 239 204 203 174 72 270 286 285 279 186 153 163 167 152 210 69 13 304 240 249 225 199 173 151 137 173 166 143 115 86 97 101 84 55 39 44 49 38
317 313 315 327 349 335 326 322 321 255 219 258 256 240 237 234 270 268 259 300 250 267 332 321 247 202 158 220 219 110 140 249 204 231 236 242 217 186 160 151 162 161 179 177 151 131 114 115 106 89 62 42 53 54
320 319 285 345 333 328 319 321 328 132 245 232 237 256 265 320 291 333 315 281 291 318 305 236 280 284 236 181 187 214 145 220 247 221 238 265 215 170 154 171 173 173 180 169 159 125 118 116 115 104 81 69 54 63
319 238 301 320 321 318 315 269 225 222 235 243 251 228 251 261 249 249 219 246 256 337 258 142 216 224 162 239 249 174 205 224 228 242 219 213 216 169 182 177 171 181 162 170 131 131 113 118 119 109 100 84 78 63
269 277 301 312 320 318 280 261 256 255 251 245 247 260 221 238 261 270 257 242 144 247 276 245 163 224 214 229 248 235 241 271 256 260 248 228 167 183 190 186 176 179 167 163 142 134 130 129 120 122 121 110 89 71
278 300 306 314 318 303 300 295 236 268 255 270 267 256 243 264 252 252 268 273 210 213 274 257 221 208 230 228 252 288 238 243 284 301 262 260 198 195 207 177 181 165 156 163 155 155 163 145 140 138 131 114 105 80
303 308 301 311 69 356 291 274 298 275 283 286 281 276 269 246 275 263 253 255 202 204 199 228 229 236 244 273 208 244 253 206 197 271 271 261 219 172 207 170 195 175 141 121 104 112 116 109 123 129 128 129 124 120
321 289 324 357 341 225 266 310 290 237 287 290 312 328 284 287 265 279 287 210 97 220 251 2 348 319 312 303 293 271 268 205 230 207 229 242 227 179 187 207 147 147 148 152 160 153 150 160 146 134 131 119 110 111
260 341 293 176 309 272 251 236 229 281 290 273 308 261 263 276 279 246 219 108 122 9 352 329 326 328 318 314 313 309 288 268 243 237 246 168 162 172 180 184 150 170 170 181 173 170 167 140 138 135 129 124 119 118
344 331 289 290 300 299 263 31 267 268 278 295 310 303 301 307 271 327 316 38 43 337 328 315 311 316 308 303 303 306 312 315 267 233 230 226 216 188 167 176 175 167 170 189 181 162 153 145 141 134 131 129 126 122
296 270 308 296 261 275 312 282 256 276 313 331 318 292 317 283 320 303 357 71 351 341 350 339 324 316 324 328 320 321 326 338 316 286 235 203 210 209 182 176 188 189 181 156 150 142 143 148 141 143 146 141 139 137
4 297 192 287 243 273 275 265 273 315 280 286 278 281 268 55 287 278 42 10 330 339 349 350 349 348 356 345 342 339 340 341 325 309 294 236 164 100 154 164 181 164 145 145 151 157 154 148 153 153 154 150 149 151
269 250 166 226 263 212 281 314 295 296 311 287 274 284 337 311 267 45 42 354 326 337 338 354 341 333 342 349 345 340 330 323 313 289 287 248 201 190 183 171 172 196 185 173 155 161 163 163 160 159 157 151 146 145
261 281 230 226 213 286 272 274 284 271 255 268 307 319 335 316 23 8 331 359 329 329 327 334 340 340 339 341 340 338 335 329 303 281 323 356 30 50 182 190 197 191 167 166 166 167 162 164 166 166 156 152 160 160
239 257 220 221 207 218 258 257 253 251 265 259 352 294 346 24 7 325 326 323 325 325 332 338 344 352 353 344 342 351 352 351 359 6 291 41 36 35 22 2 334 162 168 170 165 162 162 161 171 167 160 160 156 154
245 249 254 273 257 228 223 237 245 251 245 100 328 322 66 42 331 315 316 323 323 337 346 347 358 355 357 356 4 359 9 2 11 20 23 7 7 10 355 353 1 21 72 130 144 158 164 164 164 163 160 154 149 143
245 178 215 251 241 238 214 199 229 206 260 219 158 114 131 108 20 0 359 355 354 350 350 355 1 358 360 0 358 4 12 8 8 15 359 360 351 340 331 345 355 3 75 113 108 103 97 107 109 116 122 131 137 134
193 193 236 223 258 249 231 220 234 222 202 106 353 160 124 156 124 37 16 358 348 349 4 6 3 7 2 6 3 359 1 359 360 7 8 357 3 349 347 360 359 2 54 115 125 134 134 144 150 146 145 146 149 141
190 220 227 239 263 278 323 204 195 102 72 66 25 41 90 78 52 23 10 355 359 0 353 356 1 4 3 5 8 12 4 357 4 5 10 5 358 354 4 18 20 25 36 45 95 113 120 127 128 133 140 137 136 128
257 212 220 273 309 314 307 355 254 88 69 88 61 38 60 72 83 27 348 7 358 350 348 347 352 350 6 15 11 360 2 359 2 12 13 19 20 15 14 22 26 34 51 58 59 70 82 94 101 108 108 104 98 99